contact:dominique.lefevre@mio.osupytheas.fr, maurice.libes@osupytheas.fr, didier.mallarino@osupytheas.fr
Project:EMSO http://www.emso-fr.org/EMSO-France
Depth: 2436.0 m
Title:EMSO Ligure Ouest : Data MII capteur AQUADOPP
Date,Latitude,Longitude,X_East,Y_North,Z_Up,Amplitude_X,Amplitude_Y,Amplitude_Z,Batterie,SoundSpeed,Heading,Pitch,Roll,Pressure,TIS,Speed,Direction
, degrees North, degrees East, m.s-1, m.s-1,m.s-1, 1, 1, 1, Volt, m.s-1, degree, degree, degree, dbar, degree_C, m.s-1, degree
2020-08-04T00:04:03,42.805,6.029,-0.051,-0.021,0.01,104.0,105.0,101.0,13.4,1505.2,324.8,-0.7,1.8,2470.443,13.3,0.055,247.6
2020-08-04T00:07:03,42.805,6.029,-0.025,-0.015,0.004,104.0,105.0,101.0,13.3,1505.3,323.5,-0.7,1.8,2470.42,13.31,0.029,239.0
2020-08-04T00:10:03,42.805,6.029,-0.027,-0.044,0.02,104.0,105.0,102.0,13.4,1505.3,328.2,-0.7,1.8,2470.382,13.32,0.051,211.5
2020-08-04T00:13:03,42.805,6.029,-0.041,-0.036,-0.025,103.0,105.0,100.0,13.4,1505.3,326.2,-0.7,1.8,2470.39,13.32,0.054,228.7
2020-08-04T00:16:03,42.805,6.029,-0.032,-0.037,0.007,104.0,104.0,102.0,13.4,1505.3,324.7,-0.7,1.8,2470.364,13.32,0.048,220.9
2020-08-04T00:19:03,42.805,6.029,-0.045,-0.054,-0.013,104.0,105.0,101.0,13.4,1505.3,323.2,-0.7,1.8,2470.37,13.32,0.07,219.8
2020-08-04T00:22:03,42.805,6.029,-0.046,-0.029,0.013,105.0,105.0,101.0,13.4,1505.3,325.4,-0.7,1.8,2470.366,13.32,0.054,237.8
2020-08-04T00:25:03,42.805,6.029,-0.032,-0.027,-0.003,104.0,106.0,101.0,13.3,1505.3,326.1,-0.7,1.8,2470.388,13.32,0.041,229.8
2020-08-04T00:28:03,42.805,6.029,-0.018,-0.024,0.007,103.0,106.0,102.0,13.4,1505.3,325.0,-0.7,1.8,2470.382,13.32,0.03,216.9
2020-08-04T00:31:03,42.805,6.029,-0.041,-0.043,0.0,103.0,104.0,102.0,13.4,1505.3,323.0,-0.7,1.8,2470.331,13.32,0.059,223.6
2020-08-04T00:34:03,42.805,6.029,-0.041,-0.024,0.016,104.0,104.0,101.0,13.4,1505.3,325.3,-0.7,1.8,2470.358,13.32,0.047,239.7
2020-08-04T00:37:03,42.805,6.029,-0.048,-0.051,-0.004,103.0,105.0,101.0,13.3,1505.3,323.3,-0.7,1.8,2470.319,13.32,0.07,223.3
2020-08-04T00:40:03,42.805,6.029,-0.026,-0.027,0.021,104.0,105.0,101.0,13.4,1505.3,324.3,-0.7,1.8,2470.331,13.32,0.037,223.9
2020-08-04T00:43:03,42.805,6.029,-0.047,-0.042,0.0,104.0,104.0,100.0,13.4,1505.3,323.8,-0.7,1.8,2470.384,13.32,0.063,228.2
2020-08-04T00:46:03,42.805,6.029,-0.053,-0.037,-0.006,105.0,104.0,101.0,13.4,1505.3,325.8,-0.7,1.8,2470.355,13.32,0.064,235.1
2020-08-04T00:49:03,42.805,6.029,-0.021,-0.025,0.0,103.0,106.0,100.0,13.4,1505.3,327.5,-0.7,1.8,2470.325,13.32,0.032,220.0
2020-08-04T00:52:03,42.805,6.029,-0.023,-0.015,0.017,103.0,105.0,101.0,13.4,1505.3,326.6,-0.7,1.8,2470.333,13.32,0.027,236.9
2020-08-04T00:55:03,42.805,6.029,-0.05,-0.027,0.0,104.0,104.0,101.0,13.4,1505.3,326.1,-0.7,1.9,2470.331,13.32,0.056,241.6
2020-08-04T01:04:03,42.805,6.029,-0.054,-0.016,-0.019,104.0,104.0,102.0,13.4,1505.2,326.7,-0.7,1.9,2470.43,13.29,0.056,253.5
2020-08-04T01:07:04,42.805,6.029,-0.05,-0.037,-0.024,105.0,104.0,102.0,13.3,1505.2,325.5,-0.7,1.9,2470.422,13.3,0.062,233.5
2020-08-04T01:10:03,42.805,6.029,-0.042,-0.037,-0.011,103.0,105.0,100.0,13.4,1505.3,323.8,-0.7,1.8,2470.415,13.31,0.055,228.6
2020-08-04T01:13:03,42.805,6.029,-0.053,-0.035,-0.011,104.0,106.0,100.0,13.4,1505.3,328.5,-0.7,1.8,2470.403,13.32,0.063,236.6
2020-08-04T01:16:03,42.805,6.029,-0.043,-0.031,-0.001,103.0,104.0,101.0,13.3,1505.3,324.8,-0.7,1.8,2470.361,13.32,0.053,234.2
2020-08-04T01:19:03,42.805,6.029,-0.06,-0.038,0.006,104.0,103.0,103.0,13.4,1505.3,323.1,-0.7,1.8,2470.344,13.32,0.071,237.7
2020-08-04T01:22:03,42.805,6.029,-0.028,-0.06,-0.013,103.0,104.0,101.0,13.3,1505.3,323.8,-0.7,1.8,2470.374,13.32,0.066,205.0
2020-08-04T01:25:03,42.805,6.029,-0.025,-0.034,-0.01,104.0,106.0,101.0,13.3,1505.3,324.2,-0.7,1.8,2470.37,13.32,0.042,216.3
2020-08-04T01:28:03,42.805,6.029,-0.01,-0.011,0.002,105.0,104.0,102.0,13.4,1505.3,323.4,-0.7,1.8,2470.322,13.32,0.014,222.3
2020-08-04T01:31:03,42.805,6.029,-0.03,-0.008,-0.012,104.0,105.0,102.0,13.4,1505.3,325.0,-0.7,1.8,2470.364,13.32,0.031,255.1
2020-08-04T01:34:03,42.805,6.029,-0.013,-0.021,0.003,103.0,107.0,102.0,13.3,1505.3,325.0,-0.7,1.8,2470.371,13.32,0.024,211.8
2020-08-04T01:37:03,42.805,6.029,-0.017,-0.032,0.028,104.0,105.0,100.0,13.4,1505.3,323.2,-0.7,1.8,2470.333,13.32,0.036,208.0
2020-08-04T01:40:03,42.805,6.029,-0.06,-0.014,-0.005,104.0,105.0,101.0,13.4,1505.3,324.7,-0.7,1.8,2470.34,13.32,0.061,256.9
2020-08-04T01:43:03,42.805,6.029,-0.035,-0.036,0.011,103.0,105.0,101.0,13.4,1505.3,324.1,-0.7,1.9,2470.322,13.32,0.05,224.2
2020-08-04T01:46:03,42.805,6.029,-0.021,-0.05,0.005,104.0,104.0,101.0,13.4,1505.3,326.8,-0.7,1.8,2470.325,13.32,0.054,202.8
2020-08-04T01:49:03,42.805,6.029,-0.027,-0.038,-0.02,104.0,105.0,100.0,13.4,1505.3,325.0,-0.7,1.8,2470.349,13.32,0.046,215.4
2020-08-04T01:52:03,42.805,6.029,-0.024,-0.025,0.007,105.0,105.0,100.0,13.3,1505.3,325.7,-0.7,1.8,2470.307,13.32,0.034,223.8
2020-08-04T01:55:03,42.805,6.029,-0.068,-0.025,0.0,105.0,104.0,102.0,13.3,1505.3,325.4,-0.7,1.9,2470.323,13.32,0.072,249.8
2020-08-04T01:58:03,42.805,6.029,-0.029,-0.018,0.004,104.0,105.0,102.0,13.3,1505.3,326.6,-0.7,1.8,2470.347,13.32,0.034,238.2
2020-08-04T02:04:03,42.805,6.029,-0.024,-0.037,0.006,104.0,105.0,101.0,13.4,1505.2,324.3,-0.7,1.8,2470.332,13.3,0.044,213.0
2020-08-04T02:07:03,42.805,6.029,-0.031,-0.037,-0.003,104.0,104.0,102.0,13.3,1505.3,324.7,-0.7,1.8,2470.332,13.31,0.048,220.0
2020-08-04T02:10:03,42.805,6.029,-0.038,-0.015,-0.002,104.0,106.0,103.0,13.3,1505.3,325.8,-0.7,1.8,2470.359,13.32,0.04,248.5
2020-08-04T02:13:03,42.805,6.029,-0.036,-0.031,-0.021,104.0,104.0,101.0,13.4,1505.3,325.6,-0.7,1.9,2470.356,13.32,0.047,229.3
2020-08-04T02:16:03,42.805,6.029,-0.017,-0.045,0.017,104.0,103.0,102.0,13.4,1505.3,324.4,-0.7,1.8,2470.318,13.32,0.048,200.7
2020-08-04T02:19:03,42.805,6.029,-0.035,-0.019,-0.005,104.0,106.0,101.0,13.4,1505.3,328.2,-0.7,1.8,2470.285,13.32,0.039,241.5
2020-08-04T02:22:03,42.805,6.029,-0.054,-0.032,0.0,103.0,106.0,101.0,13.4,1505.3,326.1,-0.7,1.9,2470.327,13.32,0.062,239.3
2020-08-04T02:25:03,42.805,6.029,-0.054,-0.027,-0.019,103.0,106.0,102.0,13.3,1505.3,325.5,-0.7,1.8,2470.296,13.32,0.06,243.4
2020-08-04T02:28:03,42.805,6.029,-0.045,-0.023,-0.02,103.0,105.0,102.0,13.4,1505.3,327.6,-0.7,1.8,2470.278,13.32,0.05,242.9
2020-08-04T02:31:03,42.805,6.029,-0.053,-0.027,-0.003,104.0,105.0,100.0,13.3,1505.3,326.7,-0.7,1.8,2470.291,13.32,0.059,243.0
2020-08-04T02:34:03,42.805,6.029,-0.053,-0.026,-0.035,105.0,105.0,100.0,13.3,1505.3,328.2,-0.7,1.8,2470.312,13.32,0.059,243.9
2020-08-04T02:37:03,42.805,6.029,-0.059,-0.025,-0.004,103.0,104.0,101.0,13.4,1505.3,325.8,-0.7,1.8,2470.292,13.32,0.064,247.0
2020-08-04T02:40:03,42.805,6.029,-0.041,-0.038,0.008,104.0,104.0,102.0,13.4,1505.3,324.0,-0.7,1.8,2470.285,13.32,0.055,227.2
2020-08-04T02:43:03,42.805,6.029,-0.018,-0.016,0.001,104.0,106.0,101.0,13.3,1505.3,327.3,-0.7,1.8,2470.272,13.32,0.024,228.4
2020-08-04T02:46:03,42.805,6.029,-0.021,-0.011,0.022,104.0,105.0,101.0,13.4,1505.3,326.0,-0.7,1.8,2470.309,13.32,0.023,242.4
2020-08-04T02:49:03,42.805,6.029,-0.067,-0.024,-0.001,103.0,106.0,102.0,13.4,1505.3,328.2,-0.7,1.8,2470.242,13.32,0.071,250.3
2020-08-04T02:52:03,42.805,6.029,-0.073,-0.027,-0.02,105.0,105.0,101.0,13.4,1505.3,326.4,-0.7,1.8,2470.283,13.32,0.077,249.7
2020-08-04T02:55:03,42.805,6.029,-0.044,-0.019,-0.012,104.0,105.0,101.0,13.4,1505.3,325.2,-0.7,1.8,2470.259,13.32,0.047,246.6
2020-08-04T02:58:03,42.805,6.029,-0.037,-0.022,0.031,104.0,104.0,102.0,13.4,1505.3,327.3,-0.7,1.8,2470.28,13.32,0.043,239.3
2020-08-04T03:04:03,42.805,6.029,-0.048,-0.024,-0.045,103.0,105.0,101.0,13.4,1505.2,326.6,-0.7,1.8,2470.295,13.3,0.053,243.4
2020-08-04T03:07:03,42.805,6.029,-0.025,-0.036,0.004,103.0,105.0,102.0,13.4,1505.3,324.6,-0.8,1.8,2470.336,13.31,0.043,214.8
2020-08-04T03:10:03,42.805,6.029,-0.038,-0.024,-0.001,105.0,104.0,101.0,13.4,1505.3,326.2,-0.7,1.8,2470.3,13.32,0.044,237.7
2020-08-04T03:13:03,42.805,6.029,-0.03,-0.035,0.001,104.0,106.0,101.0,13.4,1505.3,327.1,-0.7,1.8,2470.344,13.32,0.046,220.6
2020-08-04T03:16:03,42.805,6.029,-0.01,-0.041,0.024,103.0,106.0,101.0,13.4,1505.3,324.2,-0.7,1.8,2470.315,13.32,0.042,193.7
2020-08-04T03:19:03,42.805,6.029,-0.035,-0.022,-0.011,105.0,105.0,101.0,13.4,1505.3,324.1,-0.7,1.8,2470.297,13.32,0.041,237.8
2020-08-04T03:22:03,42.805,6.029,-0.033,-0.028,-0.011,105.0,105.0,101.0,13.4,1505.3,324.1,-0.7,1.8,2470.249,13.32,0.043,229.7
2020-08-04T03:25:03,42.805,6.029,-0.025,-0.037,0.009,103.0,104.0,102.0,13.4,1505.3,324.1,-0.7,1.9,2470.293,13.32,0.044,214.0
2020-08-04T03:28:03,42.805,6.029,-0.043,-0.025,0.011,104.0,105.0,103.0,13.4,1505.3,326.5,-0.7,1.9,2470.316,13.32,0.049,239.8
2020-08-04T03:31:03,42.805,6.029,-0.027,-0.026,-0.015,104.0,104.0,102.0,13.4,1505.3,325.3,-0.6,1.9,2470.321,13.32,0.037,226.1
2020-08-04T03:34:03,42.805,6.029,-0.041,-0.033,-0.021,103.0,106.0,102.0,13.4,1505.3,324.6,-0.7,1.8,2470.324,13.32,0.052,231.2
2020-08-04T03:37:03,42.805,6.029,-0.051,-0.017,-0.007,105.0,104.0,101.0,13.4,1505.3,327.7,-0.7,1.8,2470.256,13.32,0.053,251.6
2020-08-04T03:40:03,42.805,6.029,-0.066,-0.025,0.01,104.0,103.0,101.0,13.4,1505.3,327.5,-0.7,1.8,2470.341,13.32,0.07,249.3
2020-08-04T03:43:03,42.805,6.029,-0.054,-0.022,-0.025,102.0,105.0,101.0,13.4,1505.3,326.8,-0.7,1.8,2470.284,13.32,0.058,247.8
2020-08-04T03:46:03,42.805,6.029,-0.025,-0.019,0.004,103.0,105.0,102.0,13.4,1505.3,325.0,-0.7,1.9,2470.318,13.32,0.031,232.8
2020-08-04T03:49:03,42.805,6.029,-0.035,-0.038,0.01,103.0,106.0,102.0,13.4,1505.3,325.6,-0.7,1.8,2470.289,13.32,0.051,222.6
2020-08-04T03:52:03,42.805,6.029,-0.034,-0.034,-0.014,105.0,105.0,101.0,13.3,1505.3,322.9,-0.7,1.8,2470.325,13.32,0.048,225.0
2020-08-04T03:55:03,42.805,6.029,-0.059,-0.037,-0.04,105.0,105.0,101.0,13.4,1505.3,324.5,-0.7,1.8,2470.316,13.32,0.069,237.9
2020-08-04T03:58:03,42.805,6.029,-0.036,-0.036,-0.009,104.0,105.0,102.0,13.3,1505.3,325.7,-0.7,1.8,2470.281,13.32,0.05,225.0
2020-08-04T04:04:03,42.805,6.029,-0.032,-0.033,0.003,104.0,106.0,101.0,13.4,1505.3,325.0,-0.7,1.8,2470.379,13.31,0.045,224.1
2020-08-04T04:07:03,42.805,6.029,-0.041,-0.02,-0.001,103.0,105.0,101.0,13.4,1505.3,325.9,-0.7,1.8,2470.344,13.31,0.045,244.0
2020-08-04T04:10:03,42.805,6.029,-0.046,-0.012,-0.005,104.0,105.0,100.0,13.4,1505.3,325.7,-0.7,1.8,2470.338,13.32,0.047,255.4
2020-08-04T04:13:03,42.805,6.029,-0.03,-0.016,0.01,104.0,105.0,101.0,13.4,1505.3,327.3,-0.7,1.8,2470.331,13.32,0.034,241.9
2020-08-04T04:16:03,42.805,6.029,-0.029,-0.02,0.001,104.0,104.0,101.0,13.4,1505.3,327.1,-0.7,1.9,2470.339,13.32,0.035,235.4
2020-08-04T04:19:03,42.805,6.029,-0.043,-0.044,0.005,104.0,104.0,101.0,13.4,1505.3,324.7,-0.7,1.8,2470.333,13.32,0.061,224.3
2020-08-04T04:22:03,42.805,6.029,-0.028,-0.036,0.012,105.0,104.0,101.0,13.4,1505.3,327.6,-0.7,1.8,2470.301,13.32,0.045,217.9
2020-08-04T04:25:03,42.805,6.029,-0.036,-0.025,-0.002,103.0,104.0,101.0,13.4,1505.3,324.7,-0.7,1.8,2470.318,13.32,0.043,235.2
2020-08-04T04:28:03,42.805,6.029,-0.055,-0.007,0.027,102.0,104.0,99.0,13.3,1505.3,323.4,-0.7,1.8,2470.335,13.32,0.055,262.7
2020-08-04T04:31:03,42.805,6.029,-0.021,-0.029,-0.004,103.0,104.0,101.0,13.4,1505.3,327.0,-0.7,1.8,2470.31,13.32,0.035,215.9
2020-08-04T04:34:03,42.805,6.029,-0.03,-0.022,-0.007,102.0,104.0,101.0,13.4,1505.3,325.7,-0.7,1.8,2470.348,13.32,0.037,233.7
2020-08-04T04:37:03,42.805,6.029,-0.039,-0.009,0.009,102.0,104.0,101.0,13.4,1505.3,326.7,-0.7,1.8,2470.323,13.32,0.04,257.0
2020-08-04T04:40:03,42.805,6.029,-0.035,-0.03,-0.001,103.0,104.0,101.0,13.4,1505.3,324.7,-0.7,1.8,2470.329,13.32,0.046,229.4
2020-08-04T04:43:03,42.805,6.029,-0.047,-0.019,0.01,104.0,104.0,100.0,13.4,1505.3,328.0,-0.7,1.8,2470.315,13.32,0.05,248.0
2020-08-04T04:46:03,42.805,6.029,-0.046,-0.002,-0.008,104.0,105.0,102.0,13.4,1505.3,325.4,-0.7,1.8,2470.335,13.32,0.046,267.5
2020-08-04T04:49:03,42.805,6.029,-0.036,-0.019,0.011,104.0,104.0,100.0,13.3,1505.3,322.7,-0.7,1.8,2470.406,13.32,0.04,242.2
2020-08-04T04:52:03,42.805,6.029,-0.014,-0.037,-0.013,104.0,104.0,102.0,13.3,1505.3,324.8,-0.6,1.9,2470.316,13.32,0.039,200.7
2020-08-04T04:55:03,42.805,6.029,-0.025,-0.046,-0.014,104.0,104.0,101.0,13.3,1505.3,324.5,-0.7,1.8,2470.338,13.32,0.052,208.5
2020-08-04T04:58:03,42.805,6.029,-0.03,-0.021,0.016,104.0,104.0,101.0,13.4,1505.3,325.7,-0.7,1.8,2470.314,13.32,0.036,235.0
2020-08-04T05:04:03,42.805,6.029,-0.053,-0.019,-0.012,103.0,104.0,100.0,13.4,1505.2,325.2,-0.7,1.8,2470.431,13.3,0.056,250.3
2020-08-04T05:07:03,42.805,6.029,-0.036,-0.007,0.028,103.0,105.0,101.0,13.4,1505.3,325.2,-0.7,1.8,2470.355,13.31,0.036,259.0
2020-08-04T05:10:03,42.805,6.029,-0.021,-0.04,0.003,103.0,105.0,101.0,13.3,1505.3,324.1,-0.7,1.8,2470.378,13.32,0.045,207.7
2020-08-04T05:13:03,42.805,6.029,-0.031,-0.007,0.019,104.0,104.0,101.0,13.4,1505.3,327.7,-0.7,1.8,2470.416,13.32,0.031,257.3
2020-08-04T05:16:03,42.805,6.029,-0.021,-0.026,0.0,104.0,105.0,101.0,13.4,1505.3,325.7,-0.7,1.8,2470.419,13.32,0.033,218.9
2020-08-04T05:19:03,42.805,6.029,-0.024,-0.026,-0.014,104.0,104.0,101.0,13.4,1505.3,322.9,-0.7,1.8,2470.409,13.32,0.035,222.7
2020-08-04T05:22:03,42.805,6.029,-0.019,-0.031,-0.01,103.0,104.0,100.0,13.3,1505.3,325.6,-0.7,1.8,2470.36,13.32,0.036,211.5
2020-08-04T05:25:03,42.805,6.029,-0.03,-0.012,-0.006,104.0,105.0,101.0,13.4,1505.3,326.3,-0.7,1.9,2470.36,13.32,0.032,248.2
2020-08-04T05:28:03,42.805,6.029,-0.014,-0.016,0.016,102.0,105.0,101.0,13.4,1505.3,326.6,-0.7,1.8,2470.382,13.32,0.021,221.2
2020-08-04T05:31:03,42.805,6.029,-0.024,-0.03,-0.002,104.0,105.0,100.0,13.4,1505.3,324.8,-0.7,1.8,2470.329,13.32,0.038,218.7
2020-08-04T05:34:03,42.805,6.029,-0.015,-0.005,0.035,102.0,105.0,102.0,13.4,1505.3,326.0,-0.7,1.8,2470.409,13.32,0.015,251.6
2020-08-04T05:37:03,42.805,6.029,-0.066,-0.036,0.0,103.0,105.0,100.0,13.4,1505.3,325.3,-0.7,1.8,2470.432,13.32,0.075,241.4
2020-08-04T05:40:03,42.805,6.029,-0.022,-0.026,0.021,104.0,104.0,101.0,13.4,1505.3,327.3,-0.7,1.8,2470.412,13.32,0.034,220.2
2020-08-04T05:43:03,42.805,6.029,-0.034,-0.023,-0.013,103.0,105.0,101.0,13.4,1505.3,326.3,-0.7,1.8,2470.386,13.33,0.041,235.9
2020-08-04T05:46:03,42.805,6.029,-0.03,-0.014,-0.012,104.0,105.0,102.0,13.4,1505.3,327.4,-0.7,1.9,2470.393,13.33,0.033,245.0
2020-08-04T05:49:03,42.805,6.029,-0.054,-0.028,0.007,104.0,104.0,99.0,13.3,1505.3,325.3,-0.7,1.8,2470.375,13.33,0.06,242.6
2020-08-04T05:52:03,42.805,6.029,-0.022,-0.046,0.005,103.0,104.0,100.0,13.4,1505.3,326.5,-0.7,1.8,2470.39,13.33,0.05,205.6
2020-08-04T05:55:03,42.805,6.029,-0.015,-0.014,0.0,103.0,103.0,101.0,13.4,1505.3,326.2,-0.7,1.8,2470.402,13.33,0.02,227.0
2020-08-04T05:58:03,42.805,6.029,-0.002,-0.023,0.009,104.0,104.0,100.0,13.4,1505.3,323.3,-0.7,1.8,2470.354,13.32,0.023,185.0
2020-08-04T06:04:03,42.805,6.029,-0.038,-0.046,0.011,103.0,105.0,100.0,13.3,1505.3,326.1,-0.7,1.8,2470.424,13.31,0.059,219.6
2020-08-04T06:07:03,42.805,6.029,-0.039,-0.034,0.014,103.0,105.0,101.0,13.4,1505.3,327.4,-0.7,1.8,2470.472,13.31,0.051,228.9
2020-08-04T06:10:03,42.805,6.029,-0.038,-0.044,0.005,104.0,105.0,101.0,13.3,1505.3,326.5,-0.7,1.8,2470.433,13.32,0.058,220.8
2020-08-04T06:13:03,42.805,6.029,-0.048,-0.02,-0.018,104.0,105.0,102.0,13.4,1505.3,325.2,-0.7,1.8,2470.395,13.32,0.052,247.4
2020-08-04T06:16:03,42.805,6.029,-0.025,-0.032,-0.003,102.0,104.0,101.0,13.4,1505.3,322.7,-0.7,1.8,2470.377,13.32,0.04,218.0
2020-08-04T06:19:03,42.805,6.029,-0.026,-0.027,-0.006,103.0,104.0,103.0,13.4,1505.3,327.2,-0.7,1.8,2470.417,13.32,0.037,223.9
2020-08-04T06:22:03,42.805,6.029,-0.022,-0.017,0.029,105.0,105.0,101.0,13.4,1505.3,324.4,-0.7,1.9,2470.402,13.32,0.027,232.3
2020-08-04T06:25:03,42.805,6.029,-0.018,-0.028,0.017,105.0,104.0,101.0,13.4,1505.3,328.0,-0.7,1.8,2470.414,13.32,0.033,212.7
2020-08-04T06:28:03,42.805,6.029,-0.03,-0.016,0.0,103.0,105.0,101.0,13.4,1505.3,324.7,-0.7,1.9,2470.441,13.32,0.034,241.9
2020-08-04T06:31:03,42.805,6.029,0.0,-0.024,-0.007,103.0,104.0,100.0,13.4,1505.3,324.9,-0.7,1.8,2470.381,13.32,0.024,180.0
2020-08-04T06:34:03,42.805,6.029,-0.037,-0.026,-0.004,104.0,105.0,101.0,13.4,1505.3,327.2,-0.7,1.9,2470.402,13.32,0.045,234.9
2020-08-04T06:37:03,42.805,6.029,-0.033,-0.019,-0.001,103.0,104.0,100.0,13.4,1505.3,327.1,-0.7,1.8,2470.418,13.32,0.038,240.1
2020-08-04T06:40:03,42.805,6.029,-0.034,-0.042,-0.01,103.0,104.0,101.0,13.4,1505.3,324.6,-0.7,1.9,2470.396,13.32,0.054,219.0
2020-08-04T06:43:03,42.805,6.029,-0.071,-0.03,-0.031,104.0,105.0,100.0,13.3,1505.3,326.3,-0.7,1.8,2470.425,13.32,0.077,247.1
2020-08-04T06:46:03,42.805,6.029,-0.061,-0.026,-0.007,103.0,105.0,101.0,13.3,1505.3,323.7,-0.7,1.8,2470.438,13.32,0.066,246.9
2020-08-04T06:49:03,42.805,6.029,-0.02,-0.027,-0.024,103.0,105.0,102.0,13.4,1505.3,326.9,-0.7,1.9,2470.383,13.32,0.033,216.5
2020-08-04T06:52:03,42.805,6.029,-0.043,-0.025,-0.016,104.0,104.0,101.0,13.4,1505.3,327.4,-0.7,1.8,2470.395,13.32,0.049,239.8
2020-08-04T06:55:03,42.805,6.029,-0.048,-0.032,0.007,102.0,104.0,102.0,13.4,1505.3,327.0,-0.7,1.9,2470.445,13.32,0.057,236.3
2020-08-04T06:58:03,42.805,6.029,-0.055,-0.012,-0.007,103.0,105.0,101.0,13.4,1505.3,326.3,-0.7,1.9,2470.399,13.32,0.056,257.7
2020-08-04T07:04:03,42.805,6.029,-0.018,-0.045,-0.02,104.0,103.0,101.0,13.4,1505.2,327.2,-0.7,1.8,2470.398,13.3,0.048,201.8
2020-08-04T07:07:03,42.805,6.029,-0.055,-0.024,-0.019,104.0,105.0,101.0,13.4,1505.3,323.9,-0.7,1.8,2470.486,13.31,0.06,246.4
2020-08-04T07:10:03,42.805,6.029,-0.02,-0.029,0.027,104.0,104.0,101.0,13.4,1505.3,323.4,-0.7,1.8,2470.428,13.32,0.035,214.6
2020-08-04T07:13:03,42.805,6.029,-0.029,-0.039,-0.006,102.0,105.0,101.0,13.3,1505.3,325.4,-0.7,1.8,2470.435,13.32,0.048,216.6
2020-08-04T07:16:03,42.805,6.029,-0.041,-0.047,-0.036,103.0,103.0,102.0,13.3,1505.3,324.8,-0.7,1.8,2470.421,13.32,0.062,221.1
2020-08-04T07:19:03,42.805,6.029,-0.014,-0.036,-0.001,102.0,105.0,102.0,13.3,1505.3,325.0,-0.7,1.8,2470.401,13.32,0.038,201.2
2020-08-04T07:22:03,42.805,6.029,-0.036,-0.047,-0.018,104.0,105.0,101.0,13.4,1505.3,325.3,-0.8,1.8,2470.419,13.32,0.059,217.5
2020-08-04T07:25:03,42.805,6.029,-0.05,-0.036,0.001,105.0,105.0,100.0,13.4,1505.3,323.4,-0.7,1.9,2470.406,13.32,0.061,234.2
2020-08-04T07:28:03,42.805,6.029,-0.029,-0.037,0.007,104.0,105.0,101.0,13.4,1505.3,327.5,-0.7,1.9,2470.393,13.32,0.047,218.1
2020-08-04T07:31:03,42.805,6.029,-0.039,-0.021,-0.025,104.0,104.0,102.0,13.4,1505.3,324.8,-0.7,1.8,2470.4,13.32,0.044,241.7
2020-08-04T07:34:03,42.805,6.029,-0.053,-0.046,-0.041,104.0,104.0,101.0,13.4,1505.3,326.0,-0.7,1.8,2470.422,13.32,0.07,229.0
2020-08-04T07:37:03,42.805,6.029,-0.03,-0.045,-0.036,104.0,105.0,101.0,13.4,1505.3,322.7,-0.7,1.8,2470.411,13.32,0.054,213.7
2020-08-04T07:40:03,42.805,6.029,-0.05,-0.049,0.002,104.0,105.0,101.0,13.4,1505.3,326.5,-0.7,1.9,2470.386,13.32,0.07,225.6
2020-08-04T07:43:03,42.805,6.029,-0.031,-0.038,-0.014,103.0,105.0,102.0,13.4,1505.3,326.3,-0.7,1.8,2470.422,13.32,0.049,219.2
2020-08-04T07:46:03,42.805,6.029,-0.042,-0.037,-0.018,105.0,105.0,101.0,13.4,1505.3,323.2,-0.7,1.8,2470.4,13.32,0.055,228.6
2020-08-04T07:49:03,42.805,6.029,-0.022,-0.053,-0.026,103.0,105.0,101.0,13.3,1505.3,324.2,-0.7,1.8,2470.423,13.32,0.057,202.5
2020-08-04T07:52:03,42.805,6.029,-0.03,-0.047,-0.013,103.0,105.0,101.0,13.3,1505.3,322.9,-0.7,1.8,2470.409,13.32,0.055,212.6
2020-08-04T07:55:03,42.805,6.029,-0.021,-0.043,-0.012,103.0,104.0,102.0,13.4,1505.3,324.2,-0.7,1.8,2470.402,13.32,0.047,206.0
2020-08-04T07:58:03,42.805,6.029,-0.042,-0.035,-0.03,104.0,104.0,100.0,13.3,1505.3,324.1,-0.7,1.9,2470.417,13.32,0.054,230.2
2020-08-04T08:04:03,42.805,6.029,-0.039,-0.035,0.009,103.0,105.0,101.0,13.4,1505.2,326.6,-0.7,1.8,2470.441,13.3,0.052,228.1
2020-08-04T08:07:03,42.805,6.029,-0.006,-0.036,0.011,102.0,106.0,103.0,13.3,1505.3,327.7,-0.7,1.8,2470.429,13.31,0.036,189.5
2020-08-04T08:10:03,42.805,6.029,-0.033,-0.048,-0.03,103.0,104.0,101.0,13.4,1505.3,326.1,-0.7,1.9,2470.416,13.32,0.058,214.5
2020-08-04T08:13:03,42.805,6.029,-0.034,-0.037,0.013,103.0,104.0,101.0,13.4,1505.3,324.0,-0.7,1.8,2470.412,13.32,0.05,222.6
2020-08-04T08:16:03,42.805,6.029,-0.031,-0.022,0.002,104.0,104.0,100.0,13.4,1505.3,326.7,-0.7,1.8,2470.429,13.32,0.038,234.6
2020-08-04T08:19:03,42.805,6.029,-0.045,-0.025,-0.013,103.0,105.0,102.0,13.4,1505.3,328.6,-0.7,1.8,2470.411,13.32,0.051,240.9
2020-08-04T08:22:03,42.805,6.029,-0.023,-0.054,0.006,103.0,105.0,101.0,13.3,1505.3,324.1,-0.7,1.8,2470.422,13.32,0.058,203.1
2020-08-04T08:25:03,42.805,6.029,-0.064,-0.035,-0.021,103.0,104.0,101.0,13.3,1505.3,324.8,-0.7,1.8,2470.447,13.32,0.072,241.3
2020-08-04T08:28:03,42.805,6.029,-0.037,-0.041,-0.021,103.0,104.0,101.0,13.3,1505.3,323.5,-0.7,1.8,2470.42,13.32,0.055,222.1
2020-08-04T08:31:03,42.805,6.029,-0.021,-0.043,-0.007,103.0,104.0,101.0,13.3,1505.3,324.5,-0.7,1.8,2470.398,13.32,0.047,206.0
2020-08-04T08:34:03,42.805,6.029,-0.044,-0.042,-0.015,104.0,104.0,101.0,13.4,1505.3,325.5,-0.7,1.8,2470.444,13.32,0.06,226.3
2020-08-04T08:37:03,42.805,6.029,-0.029,-0.041,-0.011,105.0,104.0,101.0,13.4,1505.3,324.0,-0.7,1.8,2470.377,13.32,0.05,215.3
2020-08-04T08:40:03,42.805,6.029,-0.047,-0.024,0.006,104.0,104.0,101.0,13.4,1505.3,326.8,-0.7,1.8,2470.408,13.32,0.052,243.0
2020-08-04T08:43:03,42.805,6.029,-0.035,-0.035,0.007,103.0,103.0,100.0,13.3,1505.3,324.7,-0.7,1.8,2470.386,13.32,0.049,225.0
2020-08-04T08:46:03,42.805,6.029,-0.018,-0.034,0.004,105.0,103.0,101.0,13.4,1505.3,327.7,-0.7,1.8,2470.382,13.32,0.038,207.9
2020-08-04T08:49:03,42.805,6.029,-0.022,-0.045,0.005,104.0,105.0,102.0,13.4,1505.3,327.5,-0.7,1.8,2470.392,13.32,0.05,206.1
2020-08-04T08:52:03,42.805,6.029,-0.026,-0.049,-0.001,103.0,105.0,100.0,13.4,1505.3,323.3,-0.7,1.8,2470.387,13.32,0.055,207.9
2020-08-04T08:55:03,42.805,6.029,-0.018,-0.034,-0.011,104.0,103.0,101.0,13.4,1505.3,326.1,-0.7,1.8,2470.374,13.32,0.038,207.9
2020-08-04T08:58:03,42.805,6.029,-0.032,-0.036,-0.014,102.0,104.0,102.0,13.4,1505.3,324.3,-0.7,1.8,2470.357,13.32,0.048,221.6
2020-08-04T09:04:03,42.805,6.029,-0.017,-0.034,-0.023,104.0,103.0,101.0,13.4,1505.2,323.1,-0.8,1.8,2470.421,13.3,0.038,206.6
2020-08-04T09:07:03,42.805,6.029,-0.035,-0.068,-0.015,105.0,102.0,102.0,13.4,1505.3,322.9,-0.7,1.8,2470.384,13.31,0.076,207.2
2020-08-04T09:10:03,42.805,6.029,-0.024,-0.041,0.004,105.0,105.0,100.0,13.4,1505.3,324.9,-0.7,1.9,2470.437,13.32,0.047,210.3
2020-08-04T09:13:03,42.805,6.029,-0.049,-0.035,0.005,101.0,104.0,102.0,13.4,1505.3,326.8,-0.7,1.8,2470.367,13.32,0.06,234.5
2020-08-04T09:16:03,42.805,6.029,-0.048,-0.039,0.0,103.0,104.0,101.0,13.4,1505.3,326.6,-0.6,1.8,2470.403,13.32,0.061,230.9
2020-08-04T09:19:03,42.805,6.029,-0.039,-0.031,0.001,104.0,103.0,100.0,13.4,1505.3,324.5,-0.7,1.8,2470.41,13.32,0.049,231.5
2020-08-04T09:22:03,42.805,6.029,-0.019,-0.029,0.01,103.0,105.0,102.0,13.4,1505.3,324.0,-0.7,1.8,2470.373,13.32,0.034,213.2
2020-08-04T09:25:03,42.805,6.029,-0.037,-0.03,-0.017,102.0,105.0,102.0,13.3,1505.3,323.3,-0.7,1.8,2470.402,13.32,0.047,231.0
2020-08-04T09:28:03,42.805,6.029,-0.041,-0.039,0.008,105.0,104.0,100.0,13.4,1505.3,326.1,-0.8,1.8,2470.387,13.32,0.056,226.4
2020-08-04T09:31:03,42.805,6.029,-0.027,-0.048,-0.003,104.0,105.0,101.0,13.4,1505.3,324.8,-0.7,1.8,2470.401,13.32,0.055,209.4
2020-08-04T09:34:03,42.805,6.029,-0.035,-0.048,0.012,104.0,105.0,100.0,13.4,1505.3,327.2,-0.7,1.8,2470.368,13.32,0.059,216.1
2020-08-04T09:37:03,42.805,6.029,-0.032,-0.025,-0.028,103.0,104.0,100.0,13.4,1505.3,326.1,-0.7,1.8,2470.383,13.32,0.04,232.0
2020-08-04T09:40:03,42.805,6.029,-0.035,-0.04,0.007,103.0,103.0,101.0,13.4,1505.3,324.5,-0.7,1.8,2470.356,13.32,0.053,221.2
2020-08-04T09:43:03,42.805,6.029,-0.022,-0.032,0.009,104.0,103.0,101.0,13.4,1505.3,325.5,-0.7,1.8,2470.35,13.32,0.038,214.5
2020-08-04T09:46:03,42.805,6.029,-0.055,-0.039,0.013,103.0,104.0,101.0,13.3,1505.3,327.0,-0.7,1.8,2470.341,13.32,0.067,234.7
2020-08-04T09:49:03,42.805,6.029,-0.03,-0.019,-0.026,104.0,104.0,101.0,13.3,1505.3,326.2,-0.7,1.8,2470.34,13.32,0.035,237.7
2020-08-04T09:52:03,42.805,6.029,-0.034,-0.053,0.014,105.0,104.0,101.0,13.3,1505.3,323.3,-0.7,1.8,2470.357,13.32,0.062,212.7
2020-08-04T09:55:03,42.805,6.029,-0.04,-0.034,-0.013,103.0,105.0,101.0,13.4,1505.3,327.1,-0.7,1.8,2470.343,13.32,0.052,229.6